Precipitable_Water
1.68 1.81 1.89 1.64 1.15 0.77 0.72 0.79 0.95 1.03 0.93 1.10 1.16 1.29 1.19 1.33 1.22 0.83 1.36 1.48 1.53 1.54 1.69 1.69 1.60 1.51 1.52 1.55 1.77 1.83 1.72 1.73 1.77 1.82 1.86 1.82 1.76 1.64 1.76 1.70 1.81 1.84 1.81 1.84 1.82 1.80 1.73 1.65 1.62
1.64 1.71 1.69 1.34 0.70 0.59 0.59 0.74 0.82 0.95 1.06 1.13 1.15 1.14 1.31 1.09 1.20 1.08 1.22 1.45 1.55 1.59 1.66 1.62 1.56 1.53 1.52 1.56 1.59 1.66 1.64 1.70 1.79 1.88 1.89 1.82 1.68 1.80 1.88 1.98 1.81 1.66 1.65 1.73 1.81 1.74 1.69 1.62 1.61
1.55 1.66 1.31 0.75 0.71 0.57 0.61 0.78 0.90 1.01 1.12 1.14 1.06 1.29 1.27 1.19 1.16 1.16 1.34 1.46 1.58 1.58 1.66 1.61 1.59 1.59 1.53 1.56 1.57 1.59 1.58 1.59 1.65 1.74 1.81 1.85 1.89 1.59 1.79 1.86 1.85 1.66 1.84 1.61 1.78 1.67 1.64 1.62 1.70
1.55 1.56 1.21 0.72 0.67 0.74 0.78 0.87 0.97 1.05 1.03 1.08 1.08 1.01 1.24 1.43 1.20 1.28 1.38 1.52 1.53 1.60 1.68 1.57 1.63 1.67 1.65 1.62 1.65 1.63 1.60 1.57 1.60 1.75 1.91 1.90 1.86 1.88 1.66 1.78 1.75 1.66 1.58 1.63 1.70 1.80 1.70 1.75 1.79
1.45 1.19 0.78 0.67 0.68 0.79 0.89 0.98 0.99 0.96 1.05 1.08 1.06 0.99 1.07 1.33 1.40 1.30 1.36 1.50 1.49 1.69 1.64 1.58 1.64 1.67 1.72 1.72 1.78 1.75 1.70 1.64 1.58 1.60 1.77 1.86 1.89 1.89 1.83 1.80 1.79 1.60 1.71 1.79 1.63 1.64 1.71 1.80 1.82
1.09 0.96 0.69 0.63 0.66 0.81 0.88 1.07 1.06 0.99 1.01 0.97 0.93 1.00 1.05 1.32 1.27 1.28 1.35 1.45 1.47 1.61 1.57 1.62 1.63 1.67 1.73 1.81 1.87 1.85 1.82 1.78 1.70 1.59 1.59 1.77 1.84 1.85 1.89 1.79 1.93 1.90 1.69 1.78 1.72 1.75 1.75 1.76 1.78
0.92 0.70 0.68 0.68 0.65 0.71 0.84 1.03 0.90 1.05 0.99 0.99 1.13 0.88 1.04 1.19 1.29 1.29 1.34 1.40 1.42 1.52 1.62 1.59 1.63 1.68 1.74 1.96 1.96 1.93 1.93 1.86 1.82 1.70 1.57 1.58 1.71 1.80 1.85 1.83 1.80 1.86 1.93 1.87 1.76 1.85 1.84 1.68 1.70
0.85 0.78 0.65 0.66 0.60 0.69 0.89 0.94 1.05 1.05 0.98 1.18 1.31 0.91 0.90 1.20 1.34 1.31 1.33 1.33 1.40 1.48 1.59 1.62 1.71 1.73 1.85 2.03 2.02 1.94 1.95 1.97 1.93 1.88 1.69 1.52 1.71 1.69 1.73 1.79 1.81 1.82 1.85 1.86 1.96 1.76 1.75 1.79 1.75
0.94 0.68 0.64 0.65 0.70 0.78 0.97 0.94 1.07 1.14 1.12 1.12 1.29 1.05 1.17 1.28 1.35 1.28 1.26 1.29 1.33 1.40 1.48 1.65 1.67 1.83 1.86 2.26 2.02 1.94 2.03 1.99 1.95 1.93 1.92 1.97 2.03 2.03 1.98 1.97 1.86 1.81 1.80 1.82 1.79 1.83 1.82 1.68 1.74
0.83 0.62 0.64 0.79 0.76 0.76 0.88 0.92 1.01 1.01 1.05 1.05 1.06 1.19 1.24 1.24 1.25 1.20 1.20 1.21 1.31 1.38 1.41 1.53 1.77 1.70 1.73 1.97 1.88 1.99 2.12 2.22 2.14 1.96 1.99 2.01 1.99 2.01 1.93 1.92 1.81 1.73 1.79 1.82 1.82 1.77 1.77 1.76 1.80
0.69 0.59 0.78 0.82 0.86 0.87 0.86 0.88 0.97 0.97 0.87 1.04 0.95 1.08 1.14 1.16 1.18 1.19 1.24 1.27 1.31 1.45 1.55 1.52 1.62 1.64 1.83 1.79 1.81 2.01 2.30 2.10 2.09 2.06 2.11 2.18 2.13 2.14 2.13 2.09 2.00 1.95 1.84 1.89 1.99 1.89 1.84 1.82 1.90
0.54 0.64 0.79 0.86 0.93 0.80 0.77 0.88 0.82 0.85 0.92 1.14 1.10 1.17 1.16 1.16 1.18 1.23 1.26 1.33 1.38 1.46 1.58 1.64 1.61 1.69 1.78 1.88 1.71 1.86 2.02 2.15 2.05 2.08 2.12 2.19 2.21 2.21 2.17 2.13 2.14 2.09 2.10 2.00 2.00 1.96 1.94 1.93 1.92
0.56 0.65 0.82 0.91 0.90 0.92 0.92 0.82 0.87 0.92 1.07 1.14 1.17 1.23 1.27 1.25 1.27 1.32 1.40 1.48 1.53 1.55 1.64 1.69 1.72 1.70 1.73 1.70 1.80 1.79 1.88 2.13 2.17 2.10 2.17 2.21 2.31 2.20 2.20 2.13 2.09 2.07 2.10 2.04 1.99 1.96 1.97 2.00 1.95
0.67 0.76 0.78 0.90 0.87 0.99 0.91 0.94 0.90 1.01 1.17 1.13 1.21 1.25 1.30 1.33 1.34 1.36 1.40 1.44 1.53 1.65 1.71 1.74 1.80 1.75 1.80 1.77 1.76 1.78 1.89 2.17 2.18 2.14 2.21 2.24 2.23 2.17 2.13 2.11 2.12 2.14 2.10 2.11 2.03 2.03 2.03 1.97 1.92
0.68 0.64 0.71 0.82 0.89 0.95 1.02 0.95 0.83 1.01 1.17 1.15 1.24 1.30 1.39 1.43 1.51 1.48 1.51 1.52 1.62 1.70 1.92 1.80 1.69 1.81 1.83 1.81 1.78 1.75 1.98 2.30 2.08 2.00 2.11 2.20 2.20 2.14 2.06 2.10 2.05 2.14 2.23 2.14 2.02 1.98 1.96 1.87 1.83
0.66 0.66 0.80 0.80 0.79 0.90 1.02 1.07 0.97 1.07 1.10 1.12 1.21 1.32 1.40 1.50 1.55 1.59 1.74 1.71 2.10 1.80 1.95 1.94 1.78 1.78 1.86 1.81 1.73 1.84 1.93 2.04 2.07 2.08 2.11 2.17 2.12 2.10 2.13 2.09 2.08 2.15 2.09 2.10 2.10 2.14 2.05 2.01 2.04
0.54 0.64 0.70 0.66 0.67 0.78 0.80 0.97 0.98 1.05 1.09 1.13 1.22 1.30 1.40 1.75 1.61 1.74 1.75 1.71 1.90 1.84 1.83 1.97 1.88 1.76 1.89 1.82 1.76 1.76 1.99 1.89 2.05 2.08 1.98 2.16 2.01 1.96 1.96 2.09 2.07 2.09 2.15 2.15 2.21 2.14 2.22 1.91 2.01
0.57 0.55 0.48 0.49 0.86 0.60 0.75 0.74 0.90 1.05 1.10 1.14 1.20 1.25 1.37 1.57 1.52 1.88 1.70 1.79 1.81 1.86 1.80 1.94 1.94 1.89 1.89 1.84 1.83 1.81 1.94 1.94 2.05 2.04 1.92 1.96 2.09 1.91 1.80 1.94 1.85 1.87 1.98 1.97 2.14 2.08 2.07 2.07 2.00
0.65 0.48 0.45 0.52 0.62 0.56 0.58 0.63 0.82 0.99 1.10 1.15 1.20 1.25 1.36 1.40 1.50 1.54 1.60 1.75 1.75 1.86 1.79 1.87 1.89 1.90 1.81 1.76 1.74 1.75 1.77 1.94 1.95 2.00 2.04 2.04 1.87 1.82 1.93 1.66 1.85 1.74 1.72 1.70 1.65 1.75 1.85 1.91 2.10
0.51 0.44 0.49 0.44 0.50 0.48 0.63 0.53 0.68 0.88 0.95 1.11 1.19 1.25 1.30 1.39 1.46 1.49 1.47 1.56 1.70 1.76 1.88 1.87 1.84 1.85 1.84 1.86 1.88 1.90 1.88 1.86 1.96 2.01 2.04 2.05 2.14 2.04 1.92 1.86 1.88 1.89 1.73 1.76 1.64 1.70 1.49 1.53 1.62
0.48 0.47 0.45 0.44 0.53 0.51 0.49 0.54 0.80 0.81 0.84 1.01 1.15 1.30 1.30 1.33 1.36 1.44 1.41 1.51 1.66 1.72 1.84 1.89 1.94 1.94 1.94 1.97 1.97 1.94 1.98 1.91 1.84 1.80 1.86 1.92 1.95 2.06 2.06 1.97 1.99 2.00 1.94 1.82 1.86 1.89 1.80 1.57 1.59
0.54 0.50 0.34 0.37 0.45 0.68 0.53 0.39 0.67 0.81 0.63 0.84 1.00 1.16 1.25 1.30 1.31 1.39 1.43 1.48 1.64 1.72 1.88 1.93 1.97 1.97 1.95 1.94 1.91 1.83 1.81 1.79 1.95 2.06 1.91 1.97 1.98 1.95 1.99 2.03 2.06 2.09 2.06 2.04 1.97 1.97 1.90 1.92 1.81
0.52 0.48 0.37 0.42 0.43 0.40 0.40 0.33 0.63 0.73 0.71 0.88 1.02 1.14 1.24 1.26 1.34 1.39 1.40 1.52 1.70 1.79 1.87 1.91 1.93 1.91 2.01 2.00 2.04 1.93 1.84 1.84 1.95 2.02 1.97 2.13 2.00 2.02 2.04 2.00 2.00 2.07 2.11 2.09 2.08 2.02 2.02 2.08 2.03
0.52 0.41 0.40 0.43 0.41 0.32 0.48 0.32 0.38 0.75 0.63 0.86 1.01 1.12 1.19 1.31 1.43 1.47 1.47 1.60 1.70 1.77 1.84 1.90 1.94 1.84 1.91 1.95 1.96 1.94 1.93 1.78 1.78 1.93 2.00 1.99 2.05 2.08 2.20 2.01 2.10 2.03 1.94 1.97 2.03 2.06 2.03 2.06 2.09
0.43 0.39 0.38 0.43 0.44 0.39 0.47 0.23 0.49 0.69 0.69 0.78 0.87 1.04 1.17 1.30 1.41 1.45 1.42 1.49 1.67 1.78 1.82 1.86 1.92 1.77 1.86 1.88 1.93 1.97 1.96 1.88 1.81 1.90 1.93 1.93 1.94 2.05 2.14 2.12 2.16 2.22 2.22 2.24 2.18 2.14 2.02 1.99 1.98
0.41 0.39 0.38 0.40 0.31 0.35 0.41 0.30 0.60 0.72 0.77 0.84 0.91 1.09 1.16 1.34 1.37 1.47 1.54 1.55 1.68 1.80 1.95 1.98 1.94 1.86 1.89 1.93 1.93 1.95 1.93 1.94 1.96 1.95 1.97 2.00 2.04 2.12 2.17 2.06 2.05 1.97 1.99 2.05 2.00 2.02 1.90 1.95 2.01
0.49 0.36 0.39 0.29 0.28 0.21 0.24 0.48 0.66 0.83 0.79 0.81 0.92 1.03 1.23 1.34 1.43 1.58 1.61 1.67 1.75 1.85 1.86 1.93 1.96 1.91 1.87 1.87 1.86 1.81 1.83 1.87 1.87 1.84 1.86 1.85 1.87 1.82 1.78 1.74 1.66 1.71 1.62 1.63 1.57 1.57 1.75 1.90 1.85
0.45 0.44 0.31 0.23 0.22 0.27 0.34 0.45 0.79 0.77 0.73 0.81 0.86 0.97 1.16 1.37 1.50 1.52 1.56 1.65 1.74 1.74 1.72 1.69 1.68 1.60 1.52 1.48 1.47 1.43 1.49 1.53 1.47 1.26 1.14 1.11 1.12 1.10 1.10 1.11 1.21 1.30 1.37 1.42 1.40 1.38 1.40 1.54 1.78
0.36 0.34 0.30 0.32 0.40 0.31 0.30 0.48 0.70 0.90 0.90 0.85 0.92 1.03 1.17 1.29 1.33 1.34 1.37 1.36 1.33 1.22 1.04 0.94 0.93 0.94 0.95 0.93 0.84 0.78 0.76 0.74 0.75 0.74 0.74 0.75 0.76 0.80 0.80 0.84 0.87 0.90 0.97 1.12 1.18 1.16 1.21 1.26 1.32
0.52 0.40 0.36 0.28 0.28 0.43 0.46 0.56 0.80 0.70 0.83 1.00 1.03 1.10 1.26 1.28 1.25 1.24 1.17 1.06 0.99 1.01 1.04 1.05 1.05 0.99 0.90 0.80 0.67 0.66 0.66 0.64 0.64 0.66 0.68 0.71 0.71 0.75 0.77 0.78 0.80 0.82 0.86 0.92 0.96 1.00 1.07 1.10 1.15
Wind_Speed
8 9 8 7 6 10 12 10 9 10 11 9 6 7 8 7 6 7 16 14 15 14 14 13 13 13 13 13 13 13 13 13 12 12 11 11 11 11 11 11 12 12 12 12 12 13 13 13 13
7 8 8 7 9 12 13 12 12 11 10 9 8 7 8 9 8 15 14 15 15 14 14 13 13 12 12 12 12 11 11 11 11 10 10 9 9 10 10 10 10 11 11 11 11 11 12 12 12
9 8 7 11 13 14 12 13 11 9 7 7 6 8 6 7 13 12 16 16 15 13 13 13 12 12 11 11 11 11 10 10 10 9 9 8 8 8 9 9 9 9 10 10 10 10 11 11 11
5 6 7 13 14 15 14 11 10 8 9 8 6 8 8 10 12 14 16 15 14 13 13 12 11 11 10 10 10 10 10 10 10 9 9 8 7 8 8 8 8 8 9 9 9 10 10 10 9
4 6 10 13 13 13 13 11 11 9 8 8 8 11 10 9 11 15 15 14 13 13 11 11 10 9 9 9 9 9 9 9 9 9 9 9 8 8 8 7 7 7 8 8 9 9 9 9 8
3 5 7 11 11 12 11 9 9 10 9 10 12 10 9 10 14 14 14 13 12 11 10 10 9 8 7 7 7 7 7 7 7 7 8 8 8 8 8 7 7 7 7 7 7 7 7 7 6
2 7 7 8 10 9 10 10 9 9 9 10 7 10 10 11 13 13 13 12 11 10 9 9 8 7 6 5 5 4 4 5 5 5 6 6 7 7 7 7 7 7 6 6 7 6 6 6 6
4 5 8 8 10 9 8 11 9 9 9 7 5 4 10 12 12 12 12 11 10 9 8 8 7 6 5 4 3 2 2 2 3 3 4 4 5 5 6 6 6 6 6 6 6 5 5 5 5
4 5 9 10 9 7 6 9 9 8 8 7 9 9 11 12 12 11 11 10 9 8 8 8 7 6 4 4 2 1 1 0 1 1 2 2 3 5 4 5 4 5 5 5 4 4 4 4 4
1 7 7 10 10 8 9 9 7 7 6 7 7 9 11 11 11 11 10 10 9 9 8 7 7 5 4 3 1 1 1 0 1 2 2 3 4 4 3 3 3 4 4 4 4 3 3 3 4
4 7 6 10 10 9 9 10 8 4 7 5 8 9 11 10 9 9 9 9 9 8 8 8 7 6 4 3 1 1 3 2 2 2 3 4 3 3 3 3 3 3 3 3 3 3 3 3 2
6 5 6 6 6 9 9 10 12 11 9 8 9 10 9 9 9 8 8 8 8 8 8 8 8 7 5 3 2 1 1 2 4 4 5 4 3 3 2 2 2 2 3 2 4 3 3 3 3
6 5 5 5 6 7 9 11 12 11 10 9 10 9 8 8 7 7 7 7 7 8 8 8 9 8 6 4 2 2 1 2 3 3 3 3 2 1 2 1 2 2 2 2 3 3 4 4 4
4 6 6 5 4 5 6 6 9 9 9 10 8 7 6 7 7 6 6 6 6 7 8 9 9 9 7 5 4 3 2 3 2 2 3 4 3 2 1 3 2 2 1 1 2 3 3 3 4
6 6 5 4 2 2 9 7 6 7 8 8 6 4 3 5 7 6 6 5 5 6 7 8 9 10 8 6 5 4 4 3 1 4 3 5 2 1 1 4 2 2 1 1 1 1 2 2 2
9 8 2 3 1 1 5 5 6 6 6 5 3 2 2 4 11 8 6 3 6 4 6 8 10 11 10 7 6 5 3 4 2 4 2 4 2 1 3 4 2 1 1 1 1 1 0 1 2
8 1 9 0 3 5 5 3 3 2 2 1 1 2 3 3 13 3 5 4 4 3 5 8 10 11 10 9 7 6 5 4 4 3 2 1 1 1 3 3 1 0 2 2 2 1 2 2 2
9 9 3 3 2 5 7 3 1 1 2 1 4 4 3 2 5 0 4 5 4 3 4 6 10 11 10 9 8 7 5 5 4 4 3 3 2 1 1 1 1 2 2 3 1 2 4 3 5
7 2 5 2 2 6 7 4 2 3 4 4 6 5 4 5 4 3 3 5 5 4 3 6 9 11 10 10 9 8 6 6 5 4 4 4 4 4 4 3 3 3 3 3 4 5 5 5 4
6 8 7 3 5 6 5 6 3 4 4 5 5 5 6 5 5 4 4 5 6 5 4 7 8 9 9 9 8 8 7 6 6 6 6 6 5 6 6 6 6 6 6 6 6 6 6 6 6
10 8 3 6 5 6 7 9 4 5 4 5 6 6 7 7 6 5 6 6 6 6 5 6 7 8 8 9 8 7 8 8 8 9 9 9 8 8 9 9 9 9 9 9 8 8 8 8 8
2 6 7 9 10 3 14 5 13 8 3 4 6 7 8 8 6 7 7 7 7 6 6 4 8 9 8 8 8 8 9 9 10 9 9 9 9 10 11 11 12 11 11 11 12 12 12 11 12
7 6 7 8 11 8 8 5 3 1 2 3 5 6 6 6 7 8 9 8 7 7 6 5 5 7 6 8 8 8 9 11 12 12 12 12 13 13 13 14 14 14 14 14 14 15 16 16 16
10 9 8 9 9 10 5 4 2 2 4 2 5 5 4 4 5 8 11 9 7 7 6 6 5 6 6 6 7 8 9 10 11 11 11 12 12 13 12 14 15 15 16 16 16 16 16 17 17
14 13 10 8 7 10 1 6 1 2 4 4 4 3 3 3 5 9 12 10 7 6 6 5 5 5 5 6 8 8 8 7 8 9 10 10 12 13 13 14 14 15 16 16 17 17 18 18 19
15 16 13 9 10 3 5 5 3 1 0 2 2 2 3 2 6 8 9 9 9 7 5 6 6 7 7 6 7 9 10 10 10 9 10 11 12 12 13 15 16 16 17 17 17 17 18 20 19
16 15 15 14 14 9 8 4 2 4 2 2 3 3 1 2 7 7 8 7 7 6 5 4 4 4 6 7 9 10 11 11 11 12 13 13 13 14 15 16 16 17 17 18 18 19 20 20 20
17 7 12 9 10 9 7 5 2 6 4 4 3 2 3 4 5 7 8 8 7 6 4 3 3 4 5 7 8 9 9 10 11 12 13 14 15 16 17 17 18 18 18 19 19 20 20 21 21
16 15 14 14 11 9 11 9 12 6 6 5 4 4 5 6 6 6 8 7 6 5 4 3 3 5 7 9 10 9 9 10 11 12 13 14 16 17 17 18 18 19 19 20 20 21 21 22 22
12 12 16 13 14 5 13 3 2 4 5 6 6 6 6 7 7 6 7 8 7 5 4 4 5 7 9 11 11 11 11 12 13 14 15 16 17 17 18 19 19 19 20 20 21 21 22 22 23
Wind_Direction
80 83 63 47 44 55 58 55 52 61 58 77 74 76 85 60 53 106 136 133 131 126 122 117 112 105 100 98 92 92 91 92 93 94 94 94 93 95 96 101 101 102 102 107 107 107 106 103 100
79 70 55 45 47 57 50 42 52 59 67 76 69 85 81 73 95 124 131 136 133 129 126 120 114 107 102 98 95 92 90 90 91 92 92 93 96 95 98 105 104 103 106 108 110 112 110 107 104
79 62 58 54 53 57 59 59 64 66 68 55 74 63 69 99 118 126 135 138 134 132 129 125 117 109 103 99 95 92 90 88 87 88 88 94 95 101 102 104 105 105 110 111 114 118 117 114 109
62 59 57 62 62 58 58 62 58 70 65 52 86 79 88 111 126 130 138 139 136 134 131 130 123 113 106 100 95 92 89 87 85 85 84 88 96 102 112 110 110 108 112 116 120 121 123 121 116
55 55 73 67 56 53 59 58 51 60 57 51 66 93 107 112 128 137 140 142 138 137 136 136 130 121 113 106 97 91 88 86 84 84 84 85 91 103 107 111 119 115 115 120 124 127 128 128 124
27 51 62 60 54 55 53 40 53 60 67 75 89 91 101 124 135 142 143 145 145 142 141 141 138 130 122 115 105 94 87 85 84 84 85 87 89 99 105 110 113 118 121 122 128 133 136 138 135
323 62 46 65 64 51 50 33 45 53 75 66 84 97 116 133 140 146 148 148 150 149 147 147 145 141 132 127 117 100 89 86 86 86 87 90 93 97 105 110 114 117 121 124 128 133 141 146 144
98 65 68 50 57 51 48 45 35 38 64 72 35 126 140 141 146 148 153 154 156 154 156 153 151 147 146 134 122 105 103 99 93 87 93 97 101 103 108 111 115 118 121 124 128 136 144 153 158
83 72 58 50 54 73 41 48 47 66 72 56 28 125 137 146 149 154 156 162 165 165 168 167 159 157 147 143 137 103 97 128 161 127 119 101 130 122 112 121 121 125 127 131 134 142 152 164 175
355 79 71 57 61 71 54 50 64 63 75 71 73 104 136 148 155 161 165 169 175 177 176 179 175 171 162 167 129 63 354 133 202 174 153 126 131 134 134 128 138 148 148 151 154 160 167 174 196
67 87 86 72 67 71 68 59 45 34 60 89 105 123 143 154 161 167 172 174 182 186 185 189 188 184 181 172 180 108 90 61 107 145 154 150 142 142 147 146 136 156 167 185 186 179 183 191 210
108 91 92 90 85 68 67 62 53 54 63 96 110 121 137 154 165 171 179 180 183 189 193 196 194 194 195 189 180 158 144 91 113 121 135 134 140 143 143 151 152 167 177 201 209 213 222 230 222
113 104 113 108 94 70 62 59 56 56 74 102 113 119 131 143 158 167 178 183 194 198 199 201 199 201 202 201 201 193 173 133 119 142 156 161 133 149 175 156 174 179 189 209 222 226 230 235 239
137 114 122 136 93 76 78 55 56 61 83 102 121 124 136 146 158 160 172 180 196 205 207 204 207 205 205 205 206 199 177 152 144 150 143 153 134 115 114 159 143 147 170 211 237 237 240 242 244
160 147 152 153 126 64 66 0 74 89 90 101 113 139 152 185 176 177 179 190 196 214 211 211 209 206 207 208 205 198 190 174 180 160 145 143 149 92 89 155 150 119 48 257 211 209 223 232 239
209 202 126 143 243 317 291 157 94 98 96 98 101 147 222 229 203 167 183 194 207 213 229 221 210 206 206 211 206 204 205 203 209 178 178 178 138 99 102 139 129 98 356 264 255 214 272 260 252
217 229 264 236 287 312 307 89 125 103 101 90 109 308 285 319 297 164 183 198 207 221 231 220 212 206 206 210 210 212 216 223 239 206 219 154 146 77 126 126 140 348 348 327 244 251 309 295 267
272 180 207 311 242 284 283 311 40 242 280 273 272 302 280 241 283 212 198 216 211 226 221 214 201 201 203 207 212 218 225 231 235 234 230 239 253 238 278 246 353 315 293 338 44 342 336 289 286
250 308 278 272 290 285 271 288 204 231 252 271 282 289 290 275 286 260 238 225 218 209 210 196 190 196 203 209 212 219 228 233 239 239 236 258 258 260 268 268 264 282 294 279 285 293 298 318 292
235 247 243 254 257 258 238 258 208 218 254 265 271 279 289 276 259 248 230 221 211 201 193 181 191 192 201 208 215 222 229 238 244 251 255 264 268 266 267 265 266 264 278 276 284 286 296 291 283
241 262 320 269 249 251 279 245 293 216 267 278 282 276 281 269 262 237 225 204 198 192 188 194 199 202 208 213 219 228 242 246 252 255 262 263 265 268 268 268 267 270 273 277 278 279 281 285 281
252 273 254 262 266 182 264 282 237 171 263 279 279 282 275 262 253 230 204 198 197 196 198 204 211 207 209 215 228 240 249 251 255 259 260 259 270 270 272 272 272 273 274 275 277 277 277 281 282
253 271 260 251 268 303 240 298 225 247 252 273 295 290 279 248 235 218 201 195 199 198 186 191 174 190 213 224 237 252 264 260 258 260 266 268 270 271 273 274 273 274 274 275 275 278 277 276 277
250 247 239 239 253 268 213 333 298 181 344 319 311 293 291 255 237 212 195 193 200 192 196 196 197 211 224 236 248 265 285 265 263 260 266 266 272 272 272 280 274 274 276 279 279 280 279 276 276
220 230 229 266 244 288 171 306 79 305 337 304 306 279 282 273 231 190 193 195 195 196 203 211 218 221 243 253 261 268 279 272 273 269 266 271 275 277 281 287 282 280 278 280 280 279 278 279 278
217 234 251 238 285 278 251 267 209 286 325 349 336 289 287 236 182 179 185 199 207 211 223 225 226 241 252 265 270 273 277 275 270 278 275 282 286 285 285 286 287 285 283 282 286 281 282 280 278
232 229 257 282 272 259 260 141 185 183 207 274 338 326 259 173 183 183 188 193 197 204 217 228 233 256 267 282 282 281 278 278 272 276 281 284 286 287 290 289 291 287 286 287 286 284 284 283 280
237 255 228 226 257 267 271 248 241 204 228 255 275 255 176 157 162 176 174 174 177 181 191 210 240 272 287 292 293 288 281 280 281 283 284 286 289 290 290 290 290 289 289 288 288 286 284 284 281
210 235 241 259 254 265 265 270 268 237 239 261 248 216 188 175 165 171 180 184 186 196 203 221 267 288 297 301 298 291 289 289 287 289 290 291 292 292 293 293 292 291 290 289 288 287 286 285 284
232 237 232 234 240 283 291 191 211 309 258 247 232 210 199 199 198 196 195 200 201 204 222 257 287 299 303 302 295 288 288 290 291 292 293 293 294 294 294 293 292 292 291 290 289 288 287 286 286